Regional Weather Roundup
Issued by NWS Newport/Morehead, NC

Current Version | Previous Version | Text Only | Print | Product List | Glossary Off
Versions: 1 2 3 4 5 6 7 8 9 10 11 12 13 14 15 16 17 18 19 20 21 22 23 24 25 26 27 28 29 30 31 32 33 34 35 36 37 38 39 40 41 42 43 44 45 46 47 48 49 50
000 ASUS42 KMHX 231522 RWRMHX WEATHER ROUNDUP FOR EASTERN NORTH CAROLINA NATIONAL WEATHER SERVICE NEWPORT/MOREHEAD CITY NC 1100 AM EDT TUE SEP 23 2014 NOTE: "FAIR" INDICATES FEW OR NO CLOUDS BELOW 12,000 FEET WITH NO SIGNIFICANT WEATHER AND/OR OBSTRUCTIONS TO VISIBILITY NCZ015>017-031-032-045>047-102-103-231600- NORTH COAST CITY SKY/WX TMP DP RH WIND PRES REMARKS EDENTON CLOUDY 63 56 76 N7 30.29R ELIZABETH CITY CLOUDY 65 57 75 N10 30.29R KITTY HAWK CLOUDY 68 57 66 NE9 30.25R MANTEO CLOUDY 68 57 68 NE10 30.26R $$ NCZ045>047-081-094-103-104-231600- CENTRAL COAST CITY SKY/WX TMP DP RH WIND PRES REMARKS FRISCO CLOUDY 69 62 78 NE12G22 30.22R SWANQUARTER N/A 68 N/A N/A N8G22 30.21S $$ NCZ095-097-098-100-101-231600- SOUTHERN COAST CITY SKY/WX TMP DP RH WIND PRES REMARKS BEAUFORT CLOUDY 70 61 73 N15 30.21R CEDAR ISLAND N/A 72 N/A N/A N20G28 30.27S JACKSONVILLE CLOUDY 64 57 78 N13 30.23R NEWPORT NOT AVBL PINEY ISLAND CLOUDY 72 61 68 NE18G25 30.22R WILMINGTON LGT RAIN 63 61 93 N12 30.22R $$ NCZ011>013-027>030-043-044-078>080-089-090>093-098-231600- COASTAL PLAIN CITY SKY/WX TMP DP RH WIND PRES REMARKS AHOSKIE CLOUDY 59 51 74 N6 30.32R CLINTON CLOUDY 62 53 73 NE10 30.28S ELIZABETHTOWN CLOUDY 63 55 74 NE3 30.25S GOLDSBORO CLOUDY 61 55 81 N3 30.28R GREENVILLE CLOUDY 61 52 72 N8 30.30R HAVELOCK CLOUDY 68 57 68 N14 30.24R KENANSVILLE CLOUDY 61 52 71 N8 30.28S KINSTON CLOUDY 61 52 72 N7 30.29R NEW BERN CLOUDY 66 56 70 N12 30.26R RICHLANDS CLOUDY 63 54 72 N12G17 30.25S ROANOKE RAPIDS NOT AVBL ROCKY MOUNT CLOUDY 61 50 67 N10 30.31R WASHINGTON CLOUDY 61 54 78 N8 30.29R WHITEVILLE RAIN 63 58 86 N6 30.23S $$ AMZ130-135-150-152-154-156-158-170-250-252-270-ANZ085-086-088-633-658-670-231600- MARINE OBSERVATIONS STATION/POSITION TIME TEMP WIND PRES WAVE SWELL AIR SEA DIR/SP/G HT/PER HT/PER (UTC) (F) (DEG/KT/KT) (MB) (FT/S) (FT/S) CHESAPEAKE LIGHT 1500 64 20/ 19/ 22 1026.1 BUOY 44014 1500 69 76 40/ 12/ 16 1024.3 4/ 6 2/ 6 DUCK 1500 68 74 20/ 17/ 19 1024.1 2E DUCK 1500 N/A 4/ 6 OREGON INLET 1500 69 73 20/ 13/ 18 1024.1 BUOY 44095 1500 74 N/A 5/ 5 20E OREGON INLET NOT AVBL HATTERAS CG NOT AVBL DIAMOND BUOY 1500 74 10/ 21/ 25 1021.9 6/ 6 CAPE LOOKOUT 1500 72 30/ 20/ 24 1022.3 BEAUFORT LAB 1500 69 75 20/ 13/ 17 1022.4 30 SE NEW RIVER 1500 74 82 40/ 23/ 29 1020.6 7/ 7 5 SE WRIGHTSVILL 1500 66 79 30/ 19/ 23 N/A BUOY 41002 1433 75 81 90/ 14/ 16 1020.4 3/ 7 2/ 7 BUOY 41004 1500 77 81 40/ 19/ 23 1019.1 5/ 5 2/12 $$

USA.gov is the U.S. government's official web portal to all federal, state and local government web resources and services.